La Junta, CO

7:43 PM MST on January 20, 2017 (GMT -0700)
La Junta Municipal

Weather History for KLHX - May, 2013

Change the Weather History Date:

Sunday, May 19, 2013

  Actual Average Record
Temperature  
Mean Temperature 69 °F 64 °F  
Max Temperature 82 °F 79 °F 97 °F (1974)
Min Temperature 55 °F 49 °F 34 °F (1971)
Degree Days  
Heating Degree Days 0 3  
Month to date heating degree days 133 104  
Since 1 July heating degree days 5064 5227  
Cooling Degree Days 4 2  
Month to date cooling degree days 58 25  
Year to date cooling degree days 62 34  
Growing Degree Days 18 (Base 50)    
Moisture  
Dew Point 35 °F    
Average Humidity 36    
Maximum Humidity 62    
Minimum Humidity 9    
Precipitation  
Precipitation 0.00 in 0.05 in 1.58 in (2015)
Month to date precipitation 0.17  
Year to date precipitation 0.62  
Sea Level Pressure  
Sea Level Pressure 29.63 in    
Wind  
Wind Speed 10 mph (NNW)    
Max Wind Speed 33 mph    
Max Gust Speed 53 mph    
Visibility 10 miles    
Events      
T = Trace of Precipitation, MM = Missing Value Source: NWS Daily Summary

Daily Weather History Graph

Daily Weather History Graph

Search for Another Location

Airport or City:

Trip Planner

Search our weather history database for the weather conditions in past years. The results will help you decide how hot, cold, wet, or windy it might be!

Date:

Astronomy

May. 19, 2013 Rise Set
Actual Time 5:40 AM MDT 8:01 PM MDT
Civil Twilight 5:10 AM MDT 8:31 PM MDT
Nautical Twilight 4:33 AM MDT 9:08 PM MDT
Astronomical Twilight 3:52 AM MDT 9:49 PM MDT
Moon 2:13 PM MDT (5/19) 1:59 AM MDT (5/19)
Length of Visible Light 15h 21m
Length of Day
14h 21m
Waxing Gibbous, 66% of the Moon is Illuminated
May 19
Waxing Gibbous
May 24
Full
May 31
Last Quarter
Jun 8
New
Jun 16
First Quarter

Hourly Weather History & Observations

Time (MDT) Temp. Dew Point Humidity Pressure Visibility Wind Dir Wind Speed Gust Speed Precip Events Conditions
12:53 AM 64.0 °F 39.0 °F 40% 29.60 in 10.0 mi North 17.3 mph - N/A   Partly Cloudy
1:53 AM 62.1 °F 41.0 °F 46% 29.59 in 10.0 mi North 18.4 mph - N/A   Clear
2:53 AM 59.0 °F 42.1 °F 53% 29.62 in 10.0 mi NNE 8.1 mph - N/A   Clear
3:53 AM 57.9 °F 41.0 °F 53% 29.63 in 10.0 mi NNW 11.5 mph - N/A   Clear
4:53 AM 57.0 °F 41.0 °F 55% 29.63 in 10.0 mi NW 9.2 mph - N/A   Scattered Clouds
5:53 AM 57.0 °F 44.1 °F 62% 29.64 in 10.0 mi WNW 4.6 mph - N/A   Overcast
6:53 AM 59.0 °F 42.1 °F 53% 29.65 in 10.0 mi WNW 6.9 mph - N/A   Overcast
7:53 AM 63.0 °F 41.0 °F 45% 29.67 in 10.0 mi West 8.1 mph - N/A   Mostly Cloudy
8:53 AM 64.9 °F 37.9 °F 37% 29.65 in 10.0 mi Variable 5.8 mph - N/A   Clear
9:53 AM 68.0 °F 36.0 °F 31% 29.66 in 10.0 mi North 10.4 mph - N/A   Partly Cloudy
10:53 AM 69.1 °F 36.0 °F 30% 29.64 in 10.0 mi Variable 3.5 mph - N/A   Clear
11:53 AM 71.1 °F 34.0 °F 26% 29.62 in 10.0 mi SSW 8.1 mph - N/A   Clear
2:53 PM 78.1 °F 21.0 °F 12% 29.54 in 10.0 mi West 16.1 mph 21.9 mph N/A   Scattered Clouds
3:53 PM 79.0 °F 16.0 °F 9% 29.53 in 10.0 mi WNW 13.8 mph 20.7 mph N/A   Clear
4:53 PM 73.9 °F 23.0 °F 15% 29.56 in 3.0 mi SSE 10.4 mph 52.9 mph N/A   Haze
5:53 PM 68.0 °F 34.0 °F 28% 29.57 in 10.0 mi ENE 29.9 mph 34.5 mph N/A   Overcast
6:53 PM 70.0 °F 28.0 °F 21% 29.58 in 10.0 mi ENE 12.7 mph - N/A   Clear
7:53 PM 64.9 °F 34.0 °F 32% 29.63 in 10.0 mi NE 17.3 mph - N/A   Scattered Clouds
8:53 PM 62.1 °F 34.0 °F 35% 29.66 in 10.0 mi ENE 10.4 mph - N/A   Clear
9:53 PM 62.1 °F 35.1 °F 37% 29.72 in 10.0 mi WSW 11.5 mph - N/A   Overcast
10:53 PM 63.0 °F 36.0 °F 37% 29.70 in 10.0 mi ENE 5.8 mph - N/A   Partly Cloudy
11:53 PM 55.9 °F 36.0 °F 47% 29.70 in 10.0 mi Calm Calm - N/A   Clear